User: anonymous   Login
Location: Newark
(49.8969°N, 3.3422°E)
Time: 08:45:50
(UTC+00:00)
Language:

A-11 Canister half - Orbit

View from above orbital plane
View from above orbital plane
View from above satellite
View from above satellite

Ground track
Ground track

The orbit data is extracted from the following two-line orbital elements,

1    53U 60009E   20017.13331542 -.00000078 +00000-0 +70985-4 0  9994
2    53 047.2782 008.7168 0099263 350.0333 009.8488 12.17236299650017
Epoch (UTC): 17 January 2020 03:11:58
Eccentricity: 0.0099263
inclination: 47.2782°
perigee height: 1525 km
apogee height: 1684 km
right ascension of ascending node: 8.7168°
argument of perigee: 350.0333°
revolutions per day: 12.17236299
mean anomaly at epoch: 9.8488°
orbit number at epoch: 65001

The dashed part of the orbit path shows where the satellite is in the earth's shadow,  

DLR